Preview of NWS' New Version of Forecast
This preview is not operational and should not be used for support decisions.

Regional Weather Roundup (RWR)

Issued by National Weather Service (NWS)

                            
041 
ASCA42 TJSJ 260710
RWRPR 
PUERTO RICO/U.S. VIRGIN ISLANDS HOURLY WEATHER ROUNDUP
NATIONAL WEATHER SERVICE SAN JUAN PR
300 AM AST TUE MAR 26 2019

PRZ001>002-007>008-010-260800-
PUERTO RICO
  
CITY           SKY/WX    TMP DP  RH WIND       PRES   REMARKS
SAN JUAN LMM   PTCLDY    75  68  78 CALM      29.95F                  
CEIBA          PTCLDY    77  70  78 SE6       29.97F                  
$$

VIZ001>002-260800-
U.S. VIRGIN ISLANDS
  
CITY           SKY/WX    TMP DP  RH WIND       PRES   REMARKS
CHARLOTTE AMA  CLEAR     79  70  73 E10       29.95F                  
$$

HOURLY WEATHER ROUNDUP FOR THE NEWS MEDIA
  
CITY           SKY/WX    TMP DP  RH WIND       PRES   REMARKS
ORLANDO        FAIR      67  64  90 W3        30.02F                  
NEW YORK       FAIR      38   6  26 N17       30.13S WCI  28          
NEWARK         FAIR      37   5  26 N14       30.12F WCI  28          
CHICAGO        FAIR      27  17  66 N3        30.39R                  
HARTFORD       MOCLDY    32  32 100 N5        30.11S WCI  27          
BOSTON         FAIR      33  24  69 N9        30.15R WCI  25          
DALLAS         CLEAR     58  46  64 NE10      30.29R                  
PHILADELPHIA   MOCLDY    40  19  43 N16       30.11S WCI  31          
LOS ANGELES    PTCLDY    57  52  83 SE6       30.06S                  
WASHINGTON DC  CLOUDY    40  37  89 N9        30.11R WCI  34